Lobo

Go HERE for most recent data if this page is not up to date.

Jump to table bottom
Date/Time Temp deg F RH % 24 Hr Snow (in) Snow Depth (in) H2O (in)
05/18 16:00 40.8 32 "NAN" 33.6 0.00
05/18 15:00 40.2 29 "NAN" 33.8 0.00
05/18 14:00 39.6 29 "NAN" 34.1 0.00
05/18 13:00 38.3 26 "NAN" 34.4 0.00
05/18 12:00 35.8 29 "NAN" 34.5 0.00
05/18 11:00 33.4 27 "NAN" 34.6 0.00
05/18 10:00 30.9 30 "NAN" 34.6 0.00
05/18 09:00 27.7 42 "NAN" 34.5 0.00
05/18 08:00 22.9 41 "NAN" 34.6 0.00
05/18 07:00 19.7 52 "NAN" 34.6 0.00
05/18 06:00 19.4 54 "NAN" 34.6 0.00
05/18 05:00 20.4 49 "NAN" 34.7 0.00
05/18 04:00 20.5 50 "NAN" 34.6 0.00
05/18 03:00 21.3 50 "NAN" 34.6 0.00
05/18 02:00 21.8 38 "NAN" 34.6 0.00
05/18 01:00 22.8 41 "NAN" 34.6 0.00
05/18 00:00 24.5 47 "NAN" 34.5 0.00
05/17 23:00 25.1 34 "NAN" 34.6 0.00
05/17 22:00 26.4 37 "NAN" 34.6 0.00
05/17 21:00 28.9 45 "NAN" 34.6 0.00
05/17 20:00 32.8 42 "NAN" 34.6 0.00
05/17 19:00 36.5 30 "NAN" 34.6 0.00
05/17 18:00 39.4 37 "NAN" 34.6 0.00
05/17 17:00 42.3 31 "NAN" 34.6 0.00
05/17 16:00 44.2 31 "NAN" 34.6 0.00
05/17 15:00 44.4 28 "NAN" 35.0 0.00
05/17 14:00 45.7 28 "NAN" 35.0 0.00
05/17 13:00 44.4 25 "NAN" 35.4 0.00
05/17 12:00 44.9 30 "NAN" 35.5 0.00
05/17 11:00 43.8 40 "NAN" 35.7 0.00
05/17 10:00 41.4 45 "NAN" 35.9 0.00
05/17 09:00 44.2 43 "NAN" 36.0 0.00
05/17 08:00 43.3 39 "NAN" 36.0 0.00
05/17 07:00 42.1 39 "NAN" 36.0 0.00
05/17 06:00 42.0 43 "NAN" 36.1 0.00
05/17 05:00 42.2 43 "NAN" 36.2 0.00
05/17 04:00 42.2 44 "NAN" 36.1 0.00
05/17 03:00 42.5 43 "NAN" 36.0 0.00
05/17 02:00 43.4 46 "NAN" 36.1 0.00
05/17 01:00 44.6 44 "NAN" 36.0 0.00
05/17 00:00 45.8 42 "NAN" 36.2 0.00
.